I2HLY-3 Weather Reports


Display with metric or nautical units.
time (UTC)temp
F
wind
direction
speed
MPH
gust
MPH
rain 1hr
in
rain 24hr
in
rain mn
in
humidity
%
barometer
mb
20260831013232 65 112 0.0 0.0 0.00 0.00 0.00 91 1013.2
20260831011722 65 112 0.0 0.0 0.00 0.00 0.00 92 1013.1
20260831010228 65 112 0.0 0.0 0.00 0.00 0.00 91 1013.1
20260831004726 66 112 0.0 0.0 0.00 0.00 0.00 91 1013.3
20260831003220 66 112 0.0 0.0 0.00 0.00 0.00 91 1013.3
20260831001733 66 112 0.0 0.0 0.00 0.00 0.00 91 1013.3
20260831000221 66 112 0.0 0.0 0.00 0.00 0.00 90 1013.3
20260830234728 66 112 0.0 0.0 0.00 0.00 0.00 91 1013.3
20260830233222 66 112 0.0 0.0 0.00 0.00 0.00 90 1013.4
20260830231726 66 112 0.0 0.0 0.00 0.00 0.00 90 1013.5
20260830230218 67 112 0.0 0.0 0.00 0.00 0.00 90 1013.6
20260830224729 67 113 0.0 0.0 0.00 0.00 0.00 89 1013.7
20260830223224 67 113 0.0 1.0 0.00 0.00 0.00 90 1013.6
20260830221724 67 113 0.0 0.0 0.00 0.00 0.00 89 1013.5
20260830220231 67 112 0.0 0.0 0.00 0.00 0.00 88 1013.4
20260830214737 68 113 0.0 0.0 0.00 0.00 0.00 88 1013.4
20260830213221 68 112 0.0 0.0 0.00 0.00 0.00 88 1013.3
20260830211737 68 112 0.0 0.0 0.00 0.00 0.00 87 1013.3
20260830204720 69 112 0.0 0.0 0.00 0.00 0.00 86 1013.3
20260830203220 70 112 0.0 0.0 0.00 0.00 0.00 84 1013.2
20260830201736 70 112 0.0 0.0 0.00 0.00 0.00 83 1013.1
20260830200222 71 112 0.0 0.0 0.00 0.00 0.00 82 1013.0
20260830194726 71 112 0.0 1.0 0.00 0.00 0.00 79 1013.0
20260830193221 72 112 1.0 2.0 0.00 0.00 0.00 77 1013.0
20260830191733 73 112 1.0 2.0 0.00 0.00 0.00 73 1012.9
20260830184738 75 113 1.0 2.0 0.00 0.00 0.00 68 1012.6
20260830183236 77 112 0.0 1.0 0.00 0.00 0.00 66 1012.5
20260830181728 79 113 0.0 1.0 0.00 0.00 0.00 60 1012.3
20260830180220 81 113 0.0 1.0 0.00 0.00 0.00 56 1012.2
20260830174733 84 112 1.0 4.0 0.00 0.00 0.00 50 1012.1
20260830173221 85 112 2.0 4.0 0.00 0.00 0.00 48 1012.0
20260830171719 85 121 3.0 6.0 0.00 0.00 0.00 47 1011.9
20260830170239 85 104 2.0 7.0 0.00 0.00 0.00 46 1011.9
20260830164731 86 89 3.0 8.0 0.00 0.00 0.00 46 1012.0
20260830163223 86 99 5.0 8.0 0.00 0.00 0.00 46 1012.0
20260830161729 87 30 2.0 8.0 0.00 0.00 0.00 48 1012.0
20260830160231 86 47 3.0 5.0 0.00 0.00 0.00 44 1012.1
20260830154727 86 43 1.0 3.0 0.00 0.00 0.00 43 1012.0
20260830153236 86 38 1.0 5.0 0.00 0.00 0.00 42 1012.3
20260830151731 86 46 1.0 4.0 0.00 0.00 0.00 42 1012.3
20260830150229 86 106 2.0 4.0 0.00 0.00 0.00 44 1012.3
20260830144734 86 92 2.0 3.0 0.00 0.00 0.00 45 1012.4
20260830143221 86 160 5.0 9.0 0.00 0.00 0.00 45 1012.5
20260830141737 86 193 2.0 8.0 0.00 0.00 0.00 45 1012.5
20260830140221 86 226 5.0 11.0 0.00 0.00 0.00 46 1012.7
20260830134737 86 244 2.0 7.0 0.00 0.00 0.00 45 1012.8
20260830133228 86 325 1.0 4.0 0.00 0.00 0.00 45 1012.9
20260830131720 85 186 1.0 5.0 0.00 0.00 0.00 45 1013.1
20260830130223 86 304 2.0 5.0 0.00 0.00 0.00 43 1013.2
20260830124729 85 218 3.0 6.0 0.00 0.00 0.00 44 1013.3
20260830123228 85 160 2.0 8.0 0.00 0.00 0.00 44 1013.4
20260830121720 85 188 3.0 6.0 0.00 0.00 0.00 45 1013.4
20260830120225 86 166 2.0 5.0 0.00 0.00 0.00 46 1013.5
20260830114736 86 209 3.0 10.0 0.00 0.00 0.00 48 1013.6
20260830113224 87 159 4.0 9.0 0.00 0.00 0.00 49 1013.7
20260830111725 86 167 3.0 8.0 0.00 0.00 0.00 48 1013.8
20260830110234 86 159 5.0 8.0 0.00 0.00 0.00 51 1014.0
20260830104722 85 173 3.0 6.0 0.00 0.00 0.00 55 1014.1
20260830103236 85 170 3.0 5.0 0.00 0.00 0.00 54 1014.2
20260830101729 84 178 2.0 5.0 0.00 0.00 0.00 55 1014.3
20260830100227 84 232 3.0 5.0 0.00 0.00 0.00 55 1014.4
20260830094734 82 156 4.0 8.0 0.00 0.00 0.00 56 1014.5
20260830093221 83 152 1.0 5.0 0.00 0.00 0.00 57 1014.8
20260830091737 82 53 3.0 4.0 0.00 0.00 0.00 54 1014.9
20260830090226 83 159 2.0 4.0 0.00 0.00 0.00 58 1014.9
20260830084726 82 153 3.0 5.0 0.00 0.00 0.00 59 1014.8
20260830083233 81 141 0.0 4.0 0.00 0.00 0.00 58 1014.8
20260830081726 80 186 2.0 6.0 0.00 0.00 0.00 61 1014.8
20260830080219 80 277 2.0 4.0 0.00 0.00 0.00 64 1014.8
20260830074725 80 205 2.0 5.0 0.00 0.00 0.00 61 1014.8
20260830073229 80 105 1.0 3.0 0.00 0.00 0.00 64 1014.7
20260830071722 79 72 0.0 0.0 0.00 0.00 0.00 65 1014.6
20260830070227 76 299 0.0 0.0 0.00 0.00 0.00 72 1014.6
20260830064731 74 299 0.0 0.0 0.00 0.00 0.00 79 1014.4
20260830063220 72 299 0.0 0.0 0.00 0.00 0.00 84 1014.3
20260830061733 70 299 0.0 0.0 0.00 0.00 0.00 90 1014.3
20260830060231 68 299 0.0 0.0 0.00 0.00 0.00 93 1014.3
20260830054720 66 299 0.0 0.0 0.00 0.00 0.00 94 1014.2
20260830053226 63 299 0.0 0.0 0.00 0.00 0.00 94 1014.2
20260830051733 62 299 0.0 0.0 0.00 0.00 0.00 94 1014.0
20260830050230 62 299 0.0 0.0 0.00 0.00 0.00 94 1013.9
20260830044727 61 299 0.0 0.0 0.00 0.00 0.00 94 1013.8
20260830043222 61 299 0.0 0.0 0.00 0.00 0.00 93 1013.7
20260830041733 62 299 0.0 0.0 0.00 0.00 0.00 93 1013.6
20260830040224 62 299 0.0 0.0 0.00 0.00 0.00 93 1013.5
20260830034731 62 299 0.0 0.0 0.00 0.00 0.00 93 1013.5
20260830033224 62 299 0.0 0.0 0.00 0.00 0.00 93 1013.5
20260830031719 62 299 0.0 0.0 0.00 0.00 0.00 93 1013.3
20260830030232 62 299 0.0 0.0 0.00 0.00 0.00 93 1013.3
20260830024727 62 299 0.0 1.0 0.00 0.00 0.00 93 1013.3
20260830023229 62 299 0.0 0.0 0.00 0.00 0.00 92 1013.3
20260830021733 62 299 0.0 1.0 0.00 0.00 0.00 92 1013.4
20260830020232 63 299 0.0 0.0 0.00 0.00 0.00 91 1013.5
20260830014727 63 299 0.0 1.0 0.00 0.00 0.00 91 1013.5